Overview Statistics Trail Chart Weather Telemetry Raw packets
 

This is the latest recevied weather packets stored in our database for station/object BRIVER. If no packets are shown the sender has not sent any weather packets the latest 10 day(s).

<< 153 154 155 156 157 158 159 >>
Time Temp. Humidity Pressure Rain* Wind** Luminosity Snow
1787776005 20° C 54% 1014.1 hPa 0 mm - - -
1787775705 20° C 54% 1014.3 hPa 0 mm - - -
1787775526 20° C 55% 1014.3 hPa 0 mm - - -
1787775405 19.44° C 55% 1014.3 hPa 0 mm - - -
1787775105 19.44° C 54% 1014.2 hPa 0 mm - - -
1787774986 19.44° C 54% 1014.3 hPa 0 mm - - -
1787774805 20° C 55% 1014.4 hPa 0 mm - - -
1787774505 19.44° C 55% 1014.4 hPa 0 mm - - -
1787774446 19.44° C 55% 1014.4 hPa 0 mm - - -
1787774205 19.44° C 55% 1014.4 hPa 0 mm - - -
1787773905 19.44° C 55% 1014.5 hPa 0 mm - - -
1787773605 19.44° C 54% 1014.5 hPa 0 mm - - -
1787773366 20° C 55% 1014.4 hPa 0 mm - - -
1787773305 20° C 55% 1014.4 hPa 0 mm - - -
1787773005 20° C 54% 1014.4 hPa 0 mm - - -
1787772826 20° C 54% 1014.4 hPa 0 mm - - -
1787772705 19.44° C 56% 1014.4 hPa 0 mm - - -
1787772405 19.44° C 55% 1014.5 hPa 0 mm - - -
1787772286 18.89° C 56% 1014.5 hPa 0 mm - - -
1787772105 18.89° C 56% 1014.5 hPa 0 mm - - -
1787771805 18.89° C 56% 1014.6 hPa 0 mm - - -
1787771746 18.89° C 55% 1014.5 hPa 0 mm - - -
1787771505 18.89° C 55% 1014.6 hPa 0 mm - - -
1787771205 17.78° C 57% 1014.7 hPa 0 mm - - -
1787770906 18.33° C 56% 1014.7 hPa 0 mm - - -

* Rain latest hour (hover to see other rain measurements)
** Current wind speed in m/s (hover to see current wind gust speed)